| time (UTC) | temp C | wind direction | speed KPH | gust KPH | rain 1hr cm | rain 24hr cm | rain mn cm | humidity % | barometer mb |
| 20260505111530 | 9 | 209 | 17.7 | 27.4 | 0.08 | 0.10 | 0.10 | 79 | 999.4 |
| 20260505101514 | 11 | 188 | 6.4 | 14.5 | 0.03 | 0.03 | 0.03 | 72 | 999.8 |
| 20260505100105 | 11 | 220 | 3.2 | 9.7 | 0.00 | 0.00 | 0.00 | 71 | 999.9 |
| 20260505094556 | 11 | 218 | 3.2 | 8.0 | 0.00 | 0.00 | 0.00 | 71 | 1000.0 |
| 20260505093100 | 11 | 198 | 6.4 | 12.9 | 0.00 | 0.00 | 0.00 | 70 | 999.8 |
| 20260505091547 | 11 | 227 | 4.8 | 9.7 | 0.00 | 0.00 | 0.00 | 71 | 999.8 |
| 20260505090048 | 11 | 209 | 4.8 | 11.3 | 0.00 | 0.00 | 0.00 | 69 | 1000.0 |
| 20260505084545 | 11 | 225 | 4.8 | 9.7 | 0.00 | 0.00 | 0.00 | 69 | 1000.1 |
| 20260505083007 | 11 | 144 | 12.9 | 24.1 | 0.00 | 0.00 | 0.00 | 67 | 1000.2 |
| 20260505081506 | 11 | 181 | 16.1 | 29.0 | 0.00 | 0.00 | 0.00 | 66 | 1000.2 |
| 20260505080004 | 12 | 153 | 17.7 | 38.6 | 0.00 | 0.00 | 0.00 | 64 | 1000.3 |
| 20260505074502 | 12 | 149 | 16.1 | 38.6 | 0.00 | 0.00 | 0.00 | 61 | 1000.1 |
| 20260505073055 | 12 | 161 | 19.3 | 33.8 | 0.00 | 0.00 | 0.00 | 56 | 1000.1 |
| 20260505071551 | 12 | 148 | 24.1 | 35.4 | 0.00 | 0.00 | 0.00 | 56 | 1000.0 |
| 20260505070035 | 12 | 188 | 20.9 | 33.8 | 0.00 | 0.00 | 0.00 | 56 | 999.9 |
| 20260505064525 | 12 | 157 | 24.1 | 40.2 | 0.00 | 0.00 | 0.00 | 58 | 999.9 |
| 20260505063017 | 12 | 158 | 16.1 | 43.5 | 0.00 | 0.00 | 0.00 | 58 | 999.8 |
| 20260505061519 | 12 | 209 | 22.5 | 46.7 | 0.00 | 0.00 | 0.00 | 58 | 999.8 |
| 20260505060004 | 12 | 154 | 27.4 | 43.5 | 0.00 | 0.00 | 0.00 | 59 | 999.8 |
| 20260505054556 | 12 | 165 | 27.4 | 41.8 | 0.00 | 0.00 | 0.00 | 58 | 999.8 |
| 20260505053054 | 13 | 148 | 19.3 | 35.4 | 0.00 | 0.00 | 0.00 | 59 | 999.8 |
| 20260505051554 | 13 | 136 | 19.3 | 37.0 | 0.00 | 0.00 | 0.00 | 58 | 999.6 |
| 20260505041537 | 15 | 188 | 14.5 | 25.7 | 0.00 | 0.00 | 0.00 | 45 | 998.9 |
| 20260505040037 | 15 | 176 | 14.5 | 27.4 | 0.00 | 0.00 | 0.00 | 46 | 998.7 |
| 20260505034528 | 15 | 192 | 14.5 | 25.7 | 0.00 | 0.00 | 0.00 | 46 | 998.6 |
| 20260505033020 | 15 | 223 | 19.3 | 32.2 | 0.00 | 0.00 | 0.00 | 46 | 998.5 |
| 20260505031524 | 16 | 183 | 14.5 | 27.4 | 0.00 | 0.00 | 0.00 | 45 | 998.3 |
| 20260505030012 | 16 | 189 | 14.5 | 25.7 | 0.00 | 0.00 | 0.00 | 44 | 998.2 |
| 20260505024504 | 16 | 155 | 19.3 | 29.0 | 0.00 | 0.00 | 0.00 | 42 | 998.0 |
| 20260505023101 | 16 | 185 | 11.3 | 32.2 | 0.00 | 0.00 | 0.00 | 41 | 998.0 |
| 20260505021549 | 17 | 169 | 20.9 | 40.2 | 0.00 | 0.00 | 0.00 | 41 | 997.4 |
| 20260505020049 | 17 | 150 | 16.1 | 32.2 | 0.00 | 0.00 | 0.00 | 40 | 997.4 |
| 20260505014538 | 17 | 188 | 1.6 | 8.0 | 0.00 | 0.00 | 0.00 | 38 | 997.4 |
| 20260505013037 | 17 | 130 | 1.6 | 4.8 | 0.00 | 0.00 | 0.00 | 39 | 997.6 |
| 20260505011540 | 18 | 55 | 0.0 | 1.6 | 0.00 | 0.00 | 0.00 | 40 | 997.8 |
| 20260505010040 | 18 | 55 | 0.0 | 3.2 | 0.00 | 0.00 | 0.00 | 41 | 998.0 |
| 20260505004519 | 18 | 53 | 3.2 | 9.7 | 0.00 | 0.00 | 0.00 | 39 | 998.2 |
| 20260505003011 | 18 | 53 | 3.2 | 20.9 | 0.00 | 0.00 | 0.00 | 38 | 998.3 |
| 20260505001503 | 18 | 48 | 16.1 | 25.7 | 0.00 | 0.00 | 0.00 | 37 | 998.3 |
| 20260505000056 | 18 | 40 | 9.7 | 17.7 | 0.00 | 0.00 | 0.00 | 36 | 998.2 |
| 20260504234547 | 20 | 52 | 9.7 | 19.3 | 0.00 | 0.00 | 0.00 | 35 | 998.3 |
| 20260504233040 | 20 | 74 | 3.2 | 16.1 | 0.00 | 0.00 | 0.00 | 33 | 998.5 |
| 20260504231544 | 20 | 52 | 6.4 | 20.9 | 0.00 | 0.00 | 0.00 | 34 | 998.2 |
| 20260504230040 | 20 | 95 | 9.7 | 17.7 | 0.00 | 0.00 | 0.00 | 35 | 998.2 |
| 20260504224524 | 20 | 67 | 9.7 | 22.5 | 0.00 | 0.00 | 0.00 | 34 | 998.3 |
| 20260504223016 | 20 | 227 | 6.4 | 12.9 | 0.00 | 0.00 | 0.00 | 31 | 998.2 |
| 20260504221519 | 19 | 205 | 8.0 | 22.5 | 0.00 | 0.00 | 0.00 | 31 | 998.2 |
| 20260504220007 | 19 | 229 | 8.0 | 24.1 | 0.00 | 0.00 | 0.00 | 32 | 998.1 |
| 20260504214505 | 18 | 225 | 9.7 | 25.7 | 0.00 | 0.00 | 0.00 | 32 | 998.3 |
| 20260504213005 | 19 | 210 | 8.0 | 33.8 | 0.00 | 0.00 | 0.00 | 32 | 998.4 |
| 20260504211604 | 20 | 236 | 16.1 | 38.6 | 0.00 | 0.00 | 0.00 | 30 | 998.4 |
| 20260504210055 | 20 | 225 | 11.3 | 20.9 | 0.00 | 0.00 | 0.00 | 26 | 998.6 |
| 20260504204550 | 21 | 200 | 8.0 | 19.3 | 0.00 | 0.00 | 0.00 | 25 | 998.6 |
| 20260504203050 | 21 | 182 | 14.5 | 25.7 | 0.00 | 0.00 | 0.00 | 28 | 998.6 |
| 20260504201544 | 22 | 211 | 3.2 | 11.3 | 0.00 | 0.00 | 0.00 | 29 | 998.7 |
| 20260504200037 | 22 | 175 | 3.2 | 11.3 | 0.00 | 0.00 | 0.00 | 29 | 998.8 |
| 20260504194531 | 23 | 231 | 1.6 | 11.3 | 0.00 | 0.00 | 0.00 | 27 | 998.9 |
| 20260504193023 | 24 | 171 | 6.4 | 14.5 | 0.00 | 0.00 | 0.00 | 26 | 999.1 |
| 20260504191531 | 23 | 178 | 4.8 | 19.3 | 0.00 | 0.00 | 0.00 | 29 | 998.9 |
| 20260504190008 | 22 | 235 | 6.4 | 24.1 | 0.00 | 0.00 | 0.00 | 29 | 999.2 |
| 20260504184600 | 22 | 107 | 1.6 | 11.3 | 0.00 | 0.00 | 0.00 | 34 | 999.7 |
| 20260504183051 | 22 | 160 | 3.2 | 22.5 | 0.00 | 0.00 | 0.00 | 30 | 999.7 |
| 20260504181546 | 23 | 185 | 12.9 | 24.1 | 0.00 | 0.00 | 0.00 | 29 | 1000.0 |
| 20260504180042 | 23 | 155 | 14.5 | 27.4 | 0.00 | 0.00 | 0.00 | 30 | 999.8 |
| 20260504174546 | 22 | 139 | 14.5 | 20.9 | 0.00 | 0.00 | 0.00 | 30 | 999.8 |
| 20260504173035 | 22 | 123 | 14.5 | 25.7 | 0.00 | 0.00 | 0.00 | 32 | 1000.1 |
| 20260504171533 | 22 | 128 | 19.3 | 24.1 | 0.00 | 0.00 | 0.00 | 33 | 1000.3 |